Temp
14 15 15 15 15 15 15 16 16 16 17 18 17 16 15 16 17 19 19 19 18 18 18 18 18 18 18 18 18 18 18 18 18 18 18 17 17 17 17 17 17 17 17 17 17 17 17 17 17 17 17 17 17 17 17 17 17 17 17 17 17 17 17 17 16 15 15 16 16 16 17 16 16 16 16 16 15 15 15 15 14 14 14 15 15
14 15 15 15 15 15 16 16 16 16 17 17 16 15 15 15 16 18 19 18 18 18 18 18 18 18 18 18 18 18 18 18 18 18 18 17 17 17 17 17 17 17 17 17 17 17 17 17 17 17 17 17 17 17 17 17 17 17 17 17 17 17 18 18 17 16 15 15 16 16 16 16 16 16 16 16 16 16 15 15 14 14 14 14 15
14 15 15 15 15 15 15 16 16 16 17 16 15 16 16 15 15 18 19 18 18 18 18 18 18 18 18 18 18 18 18 18 18 18 18 18 17 17 17 17 17 17 17 17 17 17 17 17 17 17 17 16 17 17 17 17 16 16 17 17 17 17 18 18 18 17 16 15 15 16 16 16 16 16 16 16 16 16 16 15 15 15 14 14 15
14 15 14 15 15 15 15 16 16 16 16 15 15 15 15 14 15 17 18 18 18 18 18 18 18 18 18 18 18 18 18 18 18 18 18 18 18 17 17 17 17 17 17 17 17 17 17 17 17 17 17 16 16 17 17 17 17 17 17 17 17 18 18 18 18 18 16 15 15 16 17 16 16 16 16 15 15 16 16 16 15 15 15 15 15
14 15 15 15 15 15 15 15 15 15 15 15 14 15 15 15 15 17 18 18 18 18 18 18 18 18 18 18 18 18 18 18 18 18 18 18 18 18 18 18 18 18 18 18 18 18 17 17 17 17 17 17 17 17 17 17 17 17 17 17 17 18 18 18 18 19 18 17 16 15 16 16 16 16 16 15 15 15 15 15 15 15 15 15 15
15 16 15 14 14 15 15 15 16 15 15 15 15 15 16 16 15 16 18 18 18 18 18 18 18 18 18 18 18 18 18 18 18 18 18 18 18 18 18 18 18 18 18 18 18 18 18 17 17 17 17 17 17 17 17 17 17 17 17 17 17 17 18 18 18 19 19 18 17 16 15 16 15 16 16 16 16 15 15 15 15 15 15 15 15
15 15 15 14 14 14 14 15 15 15 15 15 16 16 16 16 16 16 17 18 18 18 18 18 18 18 18 18 18 18 18 18 18 18 18 18 18 18 18 18 18 18 18 18 18 18 18 18 18 17 17 17 17 17 17 17 17 17 17 17 16 17 17 18 18 18 18 18 17 16 16 16 16 16 16 16 15 15 15 15 14 15 15 15 15
13 14 14 15 14 14 14 14 15 14 14 15 16 16 16 16 16 16 16 17 18 18 18 18 18 18 18 18 18 18 18 18 18 18 18 18 18 18 19 18 18 18 18 18 18 18 18 18 17 17 17 17 17 17 17 17 17 17 17 17 16 16 17 18 18 18 18 17 17 17 16 16 15 15 15 15 14 14 15 15 15 16 16 16 16
12 12 13 15 15 14 14 14 15 14 15 15 15 15 15 16 16 16 16 17 18 18 18 18 18 18 18 18 18 18 18 18 18 18 18 18 18 18 18 18 18 18 18 18 18 18 18 18 17 17 17 17 16 17 17 17 17 17 17 17 17 17 18 18 18 17 17 17 16 16 16 15 15 15 15 15 15 15 16 15 15 16 16 16 16
10 11 12 13 14 14 13 14 14 14 14 15 15 15 15 15 16 16 16 18 18 18 18 18 18 18 18 18 18 18 18 18 18 18 18 18 18 18 18 18 18 18 18 18 18 18 18 17 17 16 16 16 16 16 17 17 17 17 17 18 18 18 18 18 17 17 17 16 16 16 15 15 16 15 15 16 17 17 16 15 15 16 15 15 15
9 10 11 11 13 13 13 14 14 14 14 15 15 15 14 15 15 15 16 18 18 18 18 17 17 17 17 17 17 18 18 18 18 18 18 18 18 18 18 18 18 18 18 18 18 18 17 17 16 15 15 16 16 16 16 17 17 17 18 18 18 18 18 18 17 17 17 16 16 16 16 16 16 16 16 16 16 16 16 15 15 15 14 13 14
8 8 9 11 12 13 13 13 13 13 14 14 14 14 14 14 14 15 17 18 17 17 17 17 17 17 17 17 17 17 17 17 17 17 17 18 18 18 18 18 18 18 18 18 18 17 17 16 15 15 15 16 16 16 16 16 16 17 17 17 17 17 17 17 17 17 17 17 17 17 16 17 17 16 16 16 16 16 16 15 15 15 14 14 14
8 7 8 9 11 12 13 13 13 13 13 14 14 13 14 14 14 15 16 17 17 17 16 16 16 16 16 16 16 16 17 17 17 17 17 17 18 18 18 18 18 18 17 17 17 17 16 16 15 15 15 15 16 16 16 16 16 16 17 17 17 17 17 17 17 17 17 17 17 17 16 16 16 16 16 16 16 16 15 15 15 15 15 14 15
7 7 7 8 9 10 11 12 13 13 13 13 13 13 14 14 14 14 16 16 16 16 16 15 15 15 16 16 16 16 16 16 16 17 17 17 17 18 18 17 18 17 16 16 16 16 16 15 15 15 15 15 16 16 16 16 16 16 16 16 16 16 16 16 16 16 16 16 16 15 15 15 15 15 15 15 15 15 15 15 15 15 14 14 15
6 7 7 7 8 9 9 11 12 12 13 13 13 13 13 13 12 13 14 15 15 15 15 15 15 15 15 15 15 15 15 15 16 16 16 16 17 17 17 17 17 17 16 16 16 15 15 15 15 15 15 15 15 15 15 15 15 15 15 15 15 15 15 14 14 14 14 14 14 13 13 14 14 14 14 14 14 14 14 14 14 14 14 14 14
5 6 6 7 7 8 8 9 10 11 11 12 12 11 11 11 12 13 14 14 14 14 14 13 14 14 14 14 15 14 14 15 15 16 16 16 16 16 16 16 16 15 15 14 14 14 14 14 15 15 15 15 15 15 15 15 15 15 15 14 14 14 14 14 13 13 13 13 13 13 13 13 13 13 13 13 13 13 13 14 14 14 13 13 13
5 5 6 6 7 8 8 8 8 8 10 10 10 10 10 10 10 12 13 13 12 12 12 12 12 13 13 13 14 14 13 14 15 15 16 16 16 16 15 15 15 14 13 13 13 13 13 13 14 14 14 14 14 14 14 15 15 15 14 14 14 14 14 13 13 13 13 13 13 13 13 13 13 13 13 13 13 13 13 13 13 13 12 12 12
5 5 6 6 7 8 8 7 7 7 8 9 9 9 9 9 9 10 11 11 11 11 11 11 11 12 12 12 13 13 13 13 14 14 15 15 15 15 15 14 13 13 12 12 12 12 12 12 13 13 13 13 13 14 14 14 14 14 14 14 14 14 14 14 14 14 14 14 14 14 14 14 14 13 13 13 12 12 12 12 12 12 11 10 11
5 5 6 6 6 7 8 7 7 6 7 7 8 8 9 8 8 9 9 9 9 10 10 10 10 11 11 11 12 12 12 12 13 13 14 14 15 14 14 14 12 11 11 11 11 11 11 12 12 12 12 12 12 13 13 13 14 14 13 14 14 13 13 14 14 14 14 14 14 14 14 14 13 13 13 12 12 11 11 11 11 11 10 10 10
6 6 6 6 6 7 8 8 7 6 6 7 7 8 8 8 8 8 8 8 9 9 9 10 9 9 10 10 10 11 11 11 11 12 12 13 13 13 14 13 12 10 10 10 10 10 11 11 11 11 12 12 12 12 13 13 13 13 13 13 13 12 12 12 13 13 13 13 13 12 12 12 12 12 12 11 11 11 10 10 10 10 10 9 10
6 6 6 6 6 6 7 8 7 7 7 7 7 7 7 8 7 7 7 8 8 8 8 8 8 8 8 9 9 9 9 9 10 11 11 12 12 13 13 12 11 10 10 10 10 10 10 10 11 11 11 12 12 12 12 12 12 12 12 11 11 11 11 11 11 11 11 11 11 10 11 11 10 10 10 10 10 10 10 10 10 10 9 9 9
6 6 6 6 6 7 7 7 8 8 7 7 7 7 7 7 7 7 7 6 7 7 7 7 7 7 7 8 8 8 8 9 9 9 10 11 11 12 12 11 11 11 11 10 10 10 10 10 10 10 10 11 11 11 11 11 10 10 10 10 10 10 10 10 10 10 10 9 9 9 9 9 9 9 9 9 9 9 9 9 9 9 9 9 9
6 6 6 6 7 7 7 7 7 8 7 8 7 7 7 7 8 8 7 6 6 6 6 7 7 6 6 6 7 7 8 8 8 8 8 9 10 10 10 10 10 10 10 10 10 10 10 9 9 9 9 9 9 9 9 9 9 9 9 9 9 9 9 9 9 9 9 9 9 8 8 8 8 8 8 8 8 8 8 8 8 8 9 9 9
7 6 6 6 6 7 7 7 7 7 7 8 7 7 7 7 8 8 7 6 5 5 6 6 6 6 6 6 6 6 7 8 7 7 7 8 8 9 9 9 9 9 9 9 9 9 9 9 9 9 9 9 8 8 8 8 8 8 8 8 9 9 9 9 9 8 8 8 8 8 7 7 7 7 7 7 7 7 7 7 7 7 7 8 7
6 6 6 6 6 6 7 7 7 7 7 7 8 8 8 8 7 7 7 7 6 5 5 6 6 6 6 6 6 6 7 7 6 6 7 7 7 7 8 8 8 8 9 8 8 8 8 8 8 8 8 8 8 8 8 8 8 8 8 8 8 8 8 8 8 8 7 7 7 7 7 7 7 7 7 7 7 7 7 7 7 7 7 7 7
6 6 6 6 7 7 7 7 6 6 7 7 7 7 8 8 8 7 7 7 7 6 6 7 7 7 6 6 6 6 7 7 6 6 7 7 7 7 7 7 7 8 8 8 8 8 8 8 8 8 8 8 8 7 7 7 7 7 7 7 7 7 7 7 7 7 7 6 6 6 6 6 6 6 6 6 6 6 6 6 6 6 6 6 7
7 7 6 6 7 7 7 7 7 6 6 6 7 7 7 8 8 7 7 7 6 6 6 7 7 7 6 6 6 7 7 7 7 7 7 7 7 7 7 7 7 7 8 8 8 8 8 8 8 7 7 7 7 7 7 7 7 6 6 6 6 6 6 6 6 6 6 6 6 5 6 6 6 6 6 6 6 6 6 6 6 6 6 6 6
7 7 7 7 7 7 7 7 7 7 7 6 7 7 7 7 7 7 7 7 7 6 6 6 6 7 7 7 7 7 6 6 6 6 6 6 7 7 7 7 7 8 8 8 7 7 7 7 7 7 7 7 6 6 6 6 6 5 5 5 5 5 5 5 5 5 5 5 5 5 5 5 5 5 5 5 6 6 6 6 5 5 5 5 5
7 7 8 7 7 7 7 7 7 7 7 7 7 7 7 7 8 7 7 7 7 7 7 7 7 7 7 7 7 7 6 6 6 5 6 6 6 7 7 7 7 7 7 7 7 7 7 7 7 6 6 6 5 5 5 5 4 4 4 4 4 4 4 4 5 4 4 4 5 5 5 5 5 5 5 5 5 5 5 5 5 5 5 5 5
7 8 8 8 7 7 7 7 7 7 7 7 7 7 7 7 7 7 7 6 7 7 7 7 7 7 7 7 7 7 6 5 5 5 5 6 6 6 6 7 7 7 7 7 7 7 6 6 5 5 5 5 4 4 4 3 3 3 3 3 3 3 3 3 3 3 3 3 3 4 4 4 4 4 4 4 4 4 4 4 4 4 4 4 4
7 7 8 8 8 7 7 7 7 7 7 7 6 7 7 6 7 7 6 6 6 6 6 6 6 6 6 6 6 6 6 5 5 5 5 6 6 6 6 6 6 6 6 7 6 6 5 4 4 4 3 3 3 3 2 2 2 2 2 2 1 1 2 2 2 2 3 3 3 3 3 3 3 3 3 3 3 3 3 3 3 4 4 4 4
7 7 8 8 8 8 8 7 7 7 7 7 7 7 7 6 6 6 6 6 6 6 6 6 5 6 6 6 5 5 5 5 5 6 6 5 5 5 6 6 6 6 6 6 5 4 4 4 3 3 3 2 2 2 2 1 1 1 1 1 1 1 1 1 1 2 2 2 2 2 2 2 2 2 2 2 2 2 3 3 3 3 4 4 4
7 7 8 8 8 8 8 7 7 7 7 7 7 7 7 6 6 6 6 6 6 6 6 5 5 5 5 5 5 5 5 5 6 6 6 6 5 5 5 5 5 5 5 5 4 4 3 3 2 2 2 2 1 1 1 1 1 1 0 0 0 1 1 1 1 1 2 2 2 2 2 2 2 2 2 2 2 2 2 2 3 3 3 3 3
7 7 8 8 8 8 8 8 8 7 7 7 7 6 6 6 6 6 6 6 6 6 5 5 5 5 5 5 5 5 5 6 6 6 6 6 5 5 5 5 5 5 5 4 4 3 3 3 2 2 2 1 1 1 1 1 1 1 0 0 0 1 1 1 1 1 1 1 1 1 1 1 1 1 2 2 2 2 2 2 2 2 2 3 3
7 7 8 8 8 8 8 8 8 7 7 7 7 7 6 6 6 6 6 5 5 5 5 5 5 5 5 5 5 5 5 6 6 6 6 5 5 5 5 5 4 4 4 4 3 3 3 2 2 2 2 1 1 1 1 1 1 1 1 1 1 1 1 1 1 1 1 1 1 1 1 1 1 1 1 1 1 1 2 2 2 2 2 2 2
7 7 7 7 7 8 8 8 7 7 7 7 7 8 7 6 6 6 5 5 5 5 5 5 5 5 5 5 5 5 5 5 5 5 5 5 5 5 5 4 3 3 3 3 3 3 2 2 2 2 2 1 1 1 1 1 1 1 1 1 1 1 1 1 1 1 1 1 1 1 1 1 1 1 1 1 1 1 1 2 2 2 2 2 2
7 7 7 7 7 7 7 7 7 7 7 7 7 7 7 7 6 6 5 5 5 5 5 5 5 5 6 5 5 5 5 5 5 5 4 4 5 4 4 3 3 3 3 2 3 2 2 2 2 2 2 2 2 1 1 1 1 1 1 1 1 1 1 1 1 1 1 1 1 1 1 1 1 1 1 1 1 1 1 1 1 1 1 1 1
7 7 7 7 7 7 7 7 7 7 7 7 7 7 7 7 7 6 5 5 5 5 5 5 5 5 6 5 5 4 5 5 4 4 4 4 4 3 3 3 2 2 2 2 2 2 2 2 2 2 2 2 2 2 1 1 1 1 1 1 1 1 1 1 1 1 1 1 1 1 1 1 1 1 1 1 1 1 1 1 1 1 1 1 1
7 7 6 6 6 7 7 7 7 7 7 7 7 7 7 7 7 6 5 5 5 5 5 5 4 5 5 5 4 4 5 4 4 4 3 3 3 2 2 2 2 2 2 2 2 2 2 1 1 2 2 2 2 2 2 2 1 1 1 1 1 1 1 1 1 1 1 1 1 1 1 1 1 1 1 1 1 1 1 1 1 1 1 1 1
7 7 6 6 6 7 7 7 7 7 7 7 7 6 6 6 6 6 5 5 5 5 5 4 4 4 4 4 4 5 4 4 3 3 2 2 2 2 1 1 1 1 1 1 1 1 1 1 1 1 2 2 2 2 2 2 2 1 1 1 1 1 1 1 1 1 1 1 1 1 1 1 1 1 1 1 1 1 1 1 1 1 0 1 1
6 6 6 6 6 6 7 7 7 7 7 6 6 6 6 6 6 5 5 5 5 4 4 4 4 4 4 4 4 4 4 3 3 2 2 2 2 1 1 1 1 1 1 0 0 1 1 1 1 1 2 2 2 2 2 2 2 2 1 1 1 1 1 1 1 1 1 1 1 1 1 1 1 1 1 1 1 1 1 1 1 1 1 1 1
6 6 6 6 6 6 6 6 7 6 6 6 6 5 5 5 5 5 5 5 4 4 4 4 4 4 4 4 4 4 3 3 2 2 2 1 1 1 1 1 1 0 0 0 0 0 1 1 1 1 2 2 2 2 2 2 2 2 2 1 1 1 1 1 1 1 1 1 1 1 1 1 1 1 1 1 1 1 1 1 1 1 1 1 1
6 6 6 6 6 6 6 6 6 6 6 6 5 5 5 5 5 5 5 4 4 4 4 4 3 3 3 3 3 3 2 2 2 2 1 1 1 1 1 1 1 1 0 0 0 0 1 1 1 1 2 2 2 2 2 2 2 2 2 2 1 1 1 1 1 1 1 1 1 1 1 1 1 1 1 1 1 1 1 1 1 1 1 1 1
6 6 6 6 6 6 6 6 6 6 6 5 5 4 4 4 4 4 4 4 4 4 4 3 3 3 3 3 3 3 2 2 1 1 1 1 1 1 1 1 1 1 1 0 0 0 1 1 1 1 2 2 2 2 2 2 2 2 2 1 1 1 1 1 1 1 1 1 1 1 1 1 1 1 1 1 1 1 1 1 1 2 2 2 2
6 6 6 6 6 6 6 6 6 5 5 5 4 4 4 4 4 4 4 4 4 4 3 3 3 3 3 3 3 3 2 2 2 2 1 1 1 1 1 1 1 1 1 1 0 0 1 1 1 1 1 1 2 2 2 2 2 1 1 1 1 1 1 1 1 1 1 1 1 1 1 1 1 1 1 1 1 1 1 1 2 2 2 2 2
6 6 6 5 5 5 5 6 5 5 5 5 4 4 4 4 4 4 4 4 4 4 3 3 3 3 3 3 3 3 2 2 2 2 2 2 2 2 1 1 1 1 1 1 1 1 1 1 1 1 1 1 1 1 1 1 1 1 1 1 1 1 1 1 1 1 1 1 1 1 1 1 1 1 1 1 1 1 1 2 2 2 2 2 2
6 6 5 5 5 5 5 5 5 5 5 5 4 4 4 4 4 4 4 4 4 4 3 3 3 3 3 3 3 3 3 3 2 2 2 2 2 2 2 1 1 1 1 1 1 1 1 1 1 1 1 1 1 1 1 1 1 1 1 1 1 1 1 1 1 1 1 1 1 1 1 1 1 1 1 1 1 1 1 2 2 2 2 2 2
6 6 5 5 5 5 5 5 5 5 5 4 4 4 4 4 4 4 4 4 4 4 3 3 3 3 3 3 3 3 3 2 2 2 2 2 2 2 2 2 1 1 1 1 1 1 1 1 1 1 1 1 1 1 1 1 1 1 1 1 1 1 1 1 1 1 1 1 1 1 1 1 1 1 1 1 1 1 2 2 2 2 2 2 2
6 6 6 5 5 5 6 5 5 5 5 5 4 4 4 4 4 4 4 4 4 4 3 3 3 3 3 3 3 3 2 2 2 2 2 2 2 2 1 1 1 1 1 1 1 1 1 1 1 1 1 1 1 1 1 1 0 0 0 0 0 0 0 1 1 1 1 1 1 1 1 1 1 1 1 1 1 1 2 2 2 2 2 2 2
6 6 6 5 5 6 6 6 5 5 5 5 4 4 4 4 4 4 4 4 4 3 3 3 3 3 3 3 3 3 3 2 2 2 2 2 2 2 1 1 1 1 1 1 1 1 1 1 1 1 1 1 1 0 0 0 0 0 0 0 0 0 0 1 1 1 1 1 1 1 1 1 1 1 1 1 1 1 2 2 2 2 2 2 2
6 6 6 6 6 6 6 6 6 6 5 5 5 5 4 4 4 4 4 4 4 3 3 3 3 3 3 3 2 3 3 2 2 2 2 2 2 2 2 1 1 1 1 1 1 1 1 1 1 1 1 1 0 0 0 0 0 0 0 0 0 0 0 0 1 1 1 1 1 1 1 1 1 1 1 1 1 2 2 2 2 2 2 2 2
Height
781 781 780 779 780 780 781 782 782 783 783 783 786 789 791 790 788 789 791 794 798 801 804 806 808 810 811 812 813 814 816 817 819 820 821 822 824 825 826 827 829 829 830 830 831 832 834 834 835 835 836 837 837 838 839 841 842 844 845 847 848 849 850 851 852 853 854 856 856 857 858 859 860 860 861 862 863 864 864 865 866 866 867 867 868
780 780 779 778 778 777 778 779 779 780 781 783 787 791 793 794 792 789 789 793 796 799 802 805 807 809 810 812 813 814 815 817 818 820 821 823 824 825 826 827 828 828 829 830 831 832 833 833 834 835 836 836 837 838 839 840 842 843 844 845 847 848 848 849 850 852 853 854 855 856 858 858 859 859 860 861 861 862 863 864 865 865 866 867 867
780 779 779 778 777 777 777 777 777 777 779 782 787 790 792 795 794 789 789 792 795 798 801 804 806 808 810 811 812 813 815 816 818 820 821 822 823 824 825 826 827 827 828 829 830 831 831 832 833 834 835 835 836 837 838 839 841 842 843 844 846 847 847 847 848 849 851 852 854 855 856 857 858 858 859 860 861 862 862 863 864 865 865 866 866
778 777 778 778 778 778 777 776 775 776 779 782 786 790 793 796 796 790 789 792 795 798 801 803 805 807 809 810 811 813 814 816 818 819 820 821 823 824 825 825 826 827 827 828 829 830 831 831 832 833 834 834 835 836 837 838 840 841 842 843 845 846 846 845 846 847 849 851 852 853 854 855 856 858 858 859 861 861 862 863 863 864 864 865 865
777 775 775 777 778 778 777 776 775 777 780 782 785 789 791 795 796 792 790 792 795 798 801 803 805 806 808 809 811 812 814 815 817 819 820 821 822 823 824 825 826 826 827 828 829 830 830 831 831 832 833 833 834 835 836 837 839 840 841 843 844 845 845 844 845 846 847 848 850 852 854 855 856 857 858 859 859 861 861 862 862 863 863 863 864
777 773 772 773 775 776 775 775 775 777 780 781 782 786 788 791 795 794 792 792 795 798 801 803 805 806 808 809 810 812 814 815 817 818 819 820 821 822 823 824 825 826 827 828 829 829 830 830 831 831 831 832 833 834 835 836 837 838 840 841 843 844 844 844 844 845 846 847 848 850 852 854 855 856 857 858 858 859 859 860 861 861 862 862 862
776 772 769 769 772 774 773 774 774 775 778 779 781 784 786 788 792 795 796 794 795 798 801 803 805 806 807 809 810 812 813 815 816 817 818 819 821 821 822 823 824 825 826 827 828 829 830 830 831 830 831 831 832 833 834 835 836 837 839 840 841 842 843 843 843 844 845 846 847 848 850 852 854 855 855 857 858 858 858 859 859 859 859 859 859
776 774 771 769 770 773 773 772 772 773 776 778 779 782 784 786 789 795 799 798 796 797 800 803 804 805 807 809 810 812 813 814 816 817 818 819 820 821 821 822 823 824 825 826 828 829 830 830 830 830 830 831 832 833 834 834 835 836 838 839 840 841 842 843 843 843 844 845 846 847 849 851 852 854 855 856 857 857 856 856 855 855 856 856 855
777 776 773 770 768 770 771 771 772 772 774 776 778 781 784 786 789 795 800 798 796 797 800 802 804 805 807 809 810 811 812 814 815 816 818 818 819 820 821 822 823 823 825 826 828 829 829 830 830 830 830 831 832 833 833 834 834 835 837 838 839 840 841 841 841 842 843 844 845 847 849 850 851 852 853 853 853 852 852 853 853 852 853 853 852
778 777 775 772 768 768 769 769 770 771 771 773 776 780 785 786 788 794 797 795 795 796 799 802 804 806 808 809 810 811 812 814 815 816 817 818 819 820 821 822 822 823 824 826 827 828 829 829 829 829 830 831 832 832 833 833 834 835 836 837 838 839 839 840 840 841 842 843 845 846 848 848 849 850 850 849 849 849 850 851 851 850 852 852 850
780 778 775 772 769 768 768 768 769 770 770 772 775 779 784 785 788 793 793 792 793 795 797 800 803 806 808 809 810 811 812 814 815 816 817 818 819 820 821 822 822 823 824 825 826 827 828 828 829 830 830 831 832 832 833 834 835 836 836 836 837 838 838 839 840 841 842 843 844 846 847 847 847 848 848 848 848 849 849 849 849 849 851 851 849
781 779 776 773 770 768 768 768 769 769 770 772 775 778 782 784 787 791 790 790 792 794 796 799 802 806 808 809 810 811 813 814 815 816 817 818 819 820 821 821 822 823 824 825 826 826 827 828 829 830 830 831 832 833 834 835 836 836 836 836 837 838 839 839 840 841 843 844 845 846 847 847 848 848 849 848 848 849 848 849 849 848 849 849 847
784 781 777 773 770 768 767 767 768 768 769 771 774 778 782 783 786 788 788 789 791 793 796 798 801 805 808 809 811 811 813 815 816 817 818 818 819 820 820 821 822 823 824 824 825 826 827 828 829 829 830 831 832 833 834 835 836 836 836 836 838 839 840 840 841 842 843 844 845 846 847 848 848 848 848 848 848 848 848 848 848 847 847 847 845
787 784 780 776 773 770 768 767 766 766 768 770 774 778 780 782 785 787 786 788 791 792 796 798 800 804 808 809 811 812 813 815 816 817 818 817 818 818 819 821 821 822 823 824 825 826 827 828 828 829 830 831 831 832 833 834 835 836 835 836 838 840 840 841 842 842 843 843 844 846 846 847 847 847 847 847 846 846 846 846 846 846 846 845 844
790 787 784 780 776 773 770 769 768 766 767 770 773 776 778 781 785 786 786 788 790 792 796 799 800 803 808 810 811 812 813 815 816 817 818 817 817 818 819 820 821 822 823 824 825 826 828 828 829 829 830 831 831 832 833 834 835 835 836 837 838 839 840 841 842 842 843 843 844 845 846 846 846 846 846 845 845 845 845 844 844 844 843 843 842
793 791 788 784 781 777 775 773 772 770 768 770 774 777 780 782 784 785 786 789 791 794 797 799 800 803 807 810 811 812 814 815 816 817 818 817 817 818 819 821 821 822 823 824 825 827 828 829 829 829 830 830 831 832 833 834 834 835 836 837 838 839 839 840 841 841 842 843 843 844 844 844 844 844 844 844 843 843 843 842 842 841 840 840 839
797 795 792 789 786 783 780 778 778 776 772 772 776 779 782 785 785 784 786 789 793 796 799 801 802 803 806 809 811 812 814 816 816 816 817 817 818 818 820 821 822 823 824 825 826 827 828 829 829 830 830 830 831 832 832 833 834 835 836 837 838 839 839 840 841 841 842 842 842 843 843 843 843 843 842 841 841 840 840 840 840 839 838 838 837
801 799 797 794 791 788 786 784 785 783 777 776 779 781 784 787 787 786 787 791 794 798 801 802 803 804 806 809 811 813 815 816 817 817 817 817 818 819 820 821 822 824 825 826 827 828 828 829 830 830 830 830 831 831 832 833 834 835 836 837 837 837 838 838 839 840 840 841 841 842 842 841 841 841 840 840 839 839 839 839 838 838 837 837 836
805 803 802 799 796 792 790 790 791 789 784 781 782 783 786 789 790 791 792 794 796 800 803 802 803 805 807 810 812 814 815 817 818 818 817 818 818 818 819 821 823 825 826 827 828 829 829 830 830 830 831 831 832 832 832 833 834 835 836 836 837 837 837 838 838 838 839 839 840 840 840 839 839 839 839 839 839 838 838 838 837 836 836 835 835
810 808 805 803 800 797 794 795 796 794 789 787 786 787 789 792 794 796 797 797 799 802 804 803 803 807 809 811 814 815 816 818 819 819 819 819 819 819 819 820 823 825 827 828 829 830 830 831 831 831 832 832 832 832 833 833 834 835 836 836 836 837 838 838 838 839 839 839 839 839 838 838 838 838 838 837 837 837 837 836 836 835 834 834 833
813 811 809 806 804 801 799 799 800 798 795 793 791 792 794 796 798 799 801 801 801 804 805 804 805 809 812 813 815 817 818 820 820 821 821 821 821 821 821 822 824 825 827 829 830 830 831 831 832 832 832 832 832 832 833 834 834 835 835 836 837 837 838 838 838 838 839 839 839 838 838 838 838 837 837 837 836 836 835 835 835 834 833 832 831
816 814 812 809 807 805 803 802 802 802 801 799 798 798 799 801 801 802 805 805 805 806 807 807 808 812 815 816 817 819 820 821 822 822 823 823 823 823 823 824 825 826 827 828 829 830 831 831 831 831 832 832 832 833 833 834 835 836 836 836 837 837 838 838 838 838 838 838 838 838 838 838 838 837 837 836 836 835 834 834 833 833 832 831 830
819 817 815 812 810 809 808 807 806 806 806 806 805 805 805 805 805 806 809 810 810 809 809 809 811 814 817 819 821 822 822 822 823 824 825 825 825 824 824 825 827 828 827 828 829 831 831 831 831 832 832 833 833 834 835 836 836 836 837 837 837 837 838 838 838 839 839 839 839 839 838 838 837 837 836 836 835 835 834 833 832 831 831 830 829
823 821 819 817 815 814 813 812 811 811 811 811 811 810 810 811 810 811 813 815 815 813 812 812 814 816 819 822 823 824 824 825 826 827 827 827 826 826 826 827 828 829 828 829 830 831 832 832 832 833 834 834 835 836 836 837 837 838 838 838 838 838 838 838 839 839 839 839 839 839 838 838 837 837 837 836 835 835 834 833 831 830 829 828 828
826 825 823 821 820 818 817 816 816 815 815 815 814 814 815 815 815 815 816 818 819 817 815 816 817 818 821 824 826 827 828 830 830 830 829 829 828 828 829 829 829 830 829 830 831 832 832 833 834 835 835 836 836 837 837 838 839 839 839 839 839 839 839 839 839 839 839 839 839 839 839 838 838 838 837 837 836 834 833 832 831 829 828 827 827
829 828 827 825 824 822 821 820 820 819 819 818 817 817 818 818 818 818 819 819 820 818 818 819 820 821 823 826 828 830 831 832 832 831 831 830 829 829 829 830 830 831 831 831 832 833 834 835 836 836 837 837 838 838 839 840 840 840 840 840 839 840 840 840 840 839 839 839 839 839 839 839 839 838 838 837 835 834 832 831 829 828 827 826 825
832 831 830 829 828 826 825 824 823 823 822 821 820 820 820 820 821 821 821 822 821 821 821 823 824 825 826 828 829 830 831 831 832 832 832 831 830 830 830 831 831 832 832 833 834 835 836 837 837 838 838 838 839 839 840 840 840 840 840 840 841 841 841 841 840 840 840 840 840 840 840 839 839 838 837 836 835 833 832 830 829 828 826 825 824
835 834 833 832 831 830 828 827 827 826 826 825 824 823 823 824 824 824 825 825 825 825 825 826 827 827 828 829 830 830 831 832 833 833 834 834 832 832 832 832 833 834 834 835 836 836 837 838 838 839 839 839 839 840 840 840 841 841 841 841 841 842 841 841 841 841 841 841 840 840 840 839 838 837 836 835 834 833 832 830 829 827 826 825 823
837 836 835 834 833 832 831 830 830 829 829 828 828 827 827 827 828 828 828 828 829 829 828 829 829 829 829 830 830 831 832 834 835 835 835 835 834 834 833 833 834 835 836 836 837 837 838 838 839 839 840 840 840 841 841 842 842 842 842 842 841 841 841 840 840 840 840 840 840 839 839 838 837 836 835 835 834 833 831 830 829 827 826 824 823
839 838 836 835 835 834 833 833 832 831 831 831 831 831 830 830 830 830 830 831 831 831 831 831 831 831 831 831 832 833 834 835 836 836 836 836 835 835 834 835 836 836 837 837 837 838 838 839 840 841 841 841 842 842 843 843 842 842 842 841 841 841 840 840 840 840 840 840 839 839 838 837 836 836 835 834 833 832 831 830 828 827 825 824 823
840 839 838 837 836 835 835 834 834 834 833 833 833 833 833 833 833 833 833 833 833 833 833 833 833 833 833 833 834 835 836 836 837 837 837 836 836 836 836 837 837 838 838 838 838 839 840 841 842 843 843 843 843 844 843 843 842 842 842 842 841 841 841 841 841 841 840 839 839 838 838 837 836 835 835 834 833 832 831 829 828 827 825 824 823
842 841 840 839 838 837 836 836 836 835 835 835 835 835 835 835 835 835 835 835 834 835 835 835 835 835 835 835 836 836 837 837 838 838 837 837 837 837 837 838 838 839 839 838 839 841 842 842 843 844 844 844 845 845 844 844 844 844 843 843 842 842 842 842 842 841 840 840 839 838 838 837 836 835 834 834 833 831 830 829 827 826 825 824 823
843 843 842 841 840 839 838 838 837 837 837 836 836 836 836 836 836 836 836 836 836 836 837 837 837 837 837 837 838 838 838 838 838 838 838 838 838 838 838 838 839 840 840 840 841 842 843 843 844 845 845 845 846 846 845 845 845 845 844 844 844 844 844 844 843 842 841 840 840 839 838 837 837 836 835 834 833 832 830 829 828 827 826 825 824
845 844 843 842 841 841 840 839 839 838 838 837 836 836 837 837 838 837 837 837 837 837 838 838 839 839 839 839 839 839 839 839 839 839 839 839 839 839 839 839 840 841 841 841 842 843 843 844 845 845 846 846 847 847 846 846 846 846 846 846 846 846 846 845 844 843 842 841 841 840 839 838 837 836 835 834 833 832 831 830 829 828 827 826 826
846 845 844 843 842 842 841 841 840 839 838 837 836 836 836 837 839 839 839 839 838 839 839 839 840 840 840 841 841 840 840 840 840 840 840 840 840 840 839 840 841 841 842 842 843 843 844 845 846 847 847 847 848 848 847 848 848 848 848 848 847 847 846 845 844 844 843 842 842 841 840 839 838 837 836 836 834 833 832 831 831 830 829 828 827
847 846 845 844 843 843 842 842 841 840 840 839 838 837 837 837 839 840 840 840 840 840 840 840 841 841 842 842 842 842 842 842 842 842 842 842 841 841 840 840 841 842 843 844 844 845 846 847 847 848 848 849 849 849 849 849 849 849 848 848 847 847 846 846 845 845 844 843 842 841 841 840 839 839 838 836 835 834 833 833 832 831 830 830 829
848 847 846 845 845 844 843 843 842 842 841 840 839 839 838 839 839 840 841 841 841 842 842 842 842 842 842 843 843 843 844 844 843 843 843 842 842 841 841 841 842 843 844 845 846 847 847 848 849 849 849 850 850 850 850 850 849 849 848 848 847 847 847 847 846 845 844 844 843 843 842 841 840 839 838 837 836 835 835 834 833 833 832 831 830
848 848 847 847 846 845 844 843 843 842 842 841 841 840 840 840 840 841 842 842 842 842 842 842 842 842 842 842 843 843 844 843 843 843 843 843 842 842 842 843 843 844 845 846 847 847 848 849 850 850 850 850 850 850 850 850 849 849 849 849 849 849 848 848 847 846 846 845 844 844 843 841 840 840 839 838 838 837 837 836 836 835 834 833 832
849 848 848 847 846 845 844 844 843 843 843 842 842 841 841 841 841 841 842 843 843 843 843 843 843 842 842 842 843 843 843 843 843 844 844 843 843 843 843 844 844 845 846 847 848 848 849 850 850 850 850 850 850 850 850 850 850 850 850 850 850 849 849 848 848 847 847 846 845 844 843 842 841 841 841 840 840 839 839 838 838 837 836 835 833
849 848 848 847 847 846 845 844 844 844 844 843 843 842 842 842 841 842 842 843 843 843 843 843 843 843 843 843 843 843 843 843 843 844 844 844 844 844 844 844 845 846 847 848 848 849 849 850 850 850 850 850 850 850 851 851 851 851 851 851 850 850 850 849 849 848 847 846 845 845 844 844 844 844 843 843 842 842 841 840 839 838 837 836 834
849 848 848 848 847 847 846 845 845 845 844 844 844 843 843 842 842 842 842 842 842 842 843 843 843 843 844 844 844 844 843 844 844 844 844 844 844 845 845 846 847 847 848 848 848 848 849 850 850 850 850 851 851 851 851 851 851 851 851 851 851 851 850 850 849 848 847 847 847 847 847 846 846 846 845 845 844 843 843 842 840 839 838 836 835
848 848 848 848 847 847 846 846 846 845 845 844 844 844 843 843 843 843 843 842 842 842 842 843 843 844 844 844 844 844 844 845 845 845 845 845 846 846 847 847 848 848 848 849 848 849 849 850 851 851 851 851 851 851 852 852 852 852 852 851 851 851 850 850 850 849 849 849 849 849 849 848 848 848 847 846 846 845 844 843 841 840 839 837 836
848 848 848 848 847 846 846 846 846 846 845 845 844 844 844 844 844 844 844 843 843 843 843 843 844 844 844 845 845 845 845 846 846 846 846 846 846 847 847 848 848 849 849 849 849 850 850 851 851 851 851 852 852 852 852 852 852 852 852 851 851 851 851 851 851 851 851 851 851 851 850 850 850 849 848 847 846 845 844 843 842 841 839 837 836
848 847 847 847 847 846 846 847 846 846 845 845 845 845 845 845 845 844 844 844 844 844 844 844 845 845 845 845 846 846 846 846 846 846 847 847 847 848 848 848 849 849 849 850 850 850 851 851 851 852 852 852 853 853 853 853 852 852 852 852 852 852 852 852 852 852 852 852 852 852 852 851 851 850 849 848 847 846 845 844 842 841 839 838 837
847 847 847 847 847 846 846 846 846 846 846 845 845 846 846 845 845 845 845 845 845 845 845 846 846 846 846 846 846 846 846 847 847 847 847 847 848 848 848 848 849 849 850 850 850 851 851 852 852 852 853 853 853 853 853 853 853 853 853 853 853 853 853 853 853 853 854 854 853 853 852 852 851 850 849 848 847 846 845 844 843 841 840 839 838
847 846 846 847 847 846 846 846 846 846 846 846 846 846 846 845 845 845 845 845 846 846 846 846 846 846 846 846 847 847 847 847 847 847 848 848 848 848 848 848 849 849 850 850 851 852 852 853 853 853 854 854 853 853 853 853 853 853 853 853 853 854 854 854 854 854 854 854 854 853 853 852 851 851 850 849 848 847 846 844 843 842 841 840 839
846 846 846 846 846 846 846 846 846 846 846 846 846 846 845 846 846 845 845 846 846 846 846 846 846 846 847 847 847 848 848 848 848 848 848 848 848 848 849 849 850 850 851 852 852 853 853 853 854 854 854 853 853 853 853 853 853 854 854 854 854 854 854 854 854 854 854 854 854 853 853 852 851 851 850 849 848 847 846 845 844 843 841 840 839
846 845 845 845 845 845 845 845 845 845 846 846 846 846 846 846 845 845 846 846 846 846 846 846 846 847 847 847 848 848 848 848 848 848 848 849 849 850 850 851 851 852 852 853 853 853 854 854 854 854 854 854 854 854 854 854 854 854 854 854 854 854 854 854 854 854 854 854 853 853 853 852 851 851 850 849 848 847 846 845 844 843 842 841 840
845 845 844 844 844 845 844 844 843 844 844 845 845 845 845 845 845 846 846 846 846 846 846 846 847 847 847 847 848 848 848 849 849 849 849 850 850 851 851 852 852 853 853 853 854 854 854 854 855 855 854 854 854 854 854 854 854 854 854 854 854 854 854 854 854 854 854 854 853 853 852 852 851 851 850 849 849 848 847 846 845 844 843 842 841
845 845 844 844 844 844 844 844 843 843 844 845 845 845 845 845 845 845 846 846 846 846 846 847 847 847 847 847 848 848 849 849 850 850 851 851 851 852 852 852 853 853 853 854 854 854 854 855 855 855 855 855 855 855 855 854 854 854 854 854 853 854 854 854 854 854 854 853 853 853 852 852 851 851 850 849 849 848 848 847 845 844 843 842 841
845 844 844 843 843 844 844 843 843 842 843 844 844 844 844 845 845 845 845 846 846 846 846 847 847 847 848 848 848 849 849 850 850 851 851 851 851 852 852 852 853 853 854 854 854 855 855 856 856 856 856 856 855 855 855 855 854 854 854 854 853 853 853 853 854 854 853 853 853 852 852 851 851 850 850 850 849 848 848 847 846 845 843 842 842
Wind_Speed
16 16 18 20 22 24 26 27 28 28 31 32 25 19 21 27 31 34 32 30 28 27 26 25 24 23 24 22 20 18 17 17 17 16 16 16 17 17 18 18 18 17 17 16 15 17 16 16 16 16 16 15 15 17 19 18 21 24 21 20 23 22 21 21 14 11 15 20 22 22 21 21 19 18 19 18 16 16 15 15 17 17 16 16 15
14 17 19 20 22 23 24 27 29 30 32 30 20 15 20 25 29 34 33 31 29 27 27 25 23 24 24 21 20 18 16 17 18 16 15 15 17 18 19 19 17 16 16 16 15 15 16 16 16 16 16 16 15 16 19 19 19 22 20 17 19 20 22 24 21 15 16 18 20 22 21 21 20 19 20 19 17 17 17 17 18 18 17 17 16
14 16 16 17 20 21 22 25 28 30 31 26 21 21 23 24 29 34 33 31 30 28 26 25 24 23 22 21 21 18 16 18 18 16 15 15 15 17 18 18 18 17 17 16 14 14 15 15 16 17 16 16 15 16 18 19 18 18 19 18 19 17 17 23 24 21 19 18 20 22 23 23 21 19 20 20 18 17 18 18 18 18 18 18 18
14 15 16 16 17 18 19 23 27 29 26 20 20 22 21 21 27 32 33 31 30 28 25 24 24 23 23 23 21 18 17 19 19 17 15 15 15 16 17 17 17 17 16 15 14 14 14 14 15 17 17 16 15 16 17 18 18 18 18 17 18 16 14 19 25 24 22 20 21 24 24 24 22 18 19 20 19 18 18 18 18 18 17 18 18
14 14 17 17 16 16 18 22 25 26 21 15 19 23 22 22 24 29 32 31 28 27 25 23 23 23 24 24 22 19 18 19 19 18 15 15 16 16 16 16 16 15 15 15 14 13 13 13 13 16 18 16 15 16 16 17 17 17 17 16 18 18 15 16 23 24 23 24 24 23 23 24 22 19 19 21 21 20 19 19 19 18 18 18 18
10 12 18 20 19 19 19 20 23 23 18 14 20 24 25 26 25 26 30 29 27 26 25 24 24 24 24 23 22 21 19 18 18 17 15 15 16 15 14 16 15 15 15 15 14 13 12 12 13 15 17 17 16 16 15 15 15 16 15 14 15 17 13 14 21 23 23 25 25 23 24 25 22 20 20 21 21 22 22 22 22 21 20 20 20
7 13 18 21 19 18 19 20 23 23 17 15 22 25 27 29 27 25 26 27 27 26 25 24 24 24 24 23 23 22 19 17 17 18 16 14 14 13 13 15 15 15 15 15 14 13 11 11 12 14 17 17 16 16 15 14 15 15 14 11 13 16 14 13 18 22 23 24 24 24 25 25 23 21 21 22 22 22 22 23 24 24 23 23 23
10 14 18 20 17 15 17 19 21 23 19 19 25 28 28 29 28 26 26 26 26 26 25 24 24 24 25 25 23 22 19 16 17 18 15 14 13 13 13 15 16 16 16 15 15 13 10 9 10 12 14 16 15 15 14 14 14 16 15 11 12 18 18 15 16 21 23 24 24 24 24 25 24 20 18 22 24 24 25 26 26 26 25 24 24
12 11 15 21 22 17 17 19 19 21 23 24 27 28 25 27 29 27 27 27 26 26 24 22 23 25 26 25 22 20 18 17 18 17 15 14 15 14 14 15 16 17 18 17 15 12 9 6 7 9 11 12 13 12 11 12 12 14 15 12 13 17 17 15 17 22 24 23 23 22 20 22 24 20 18 23 26 27 28 28 28 28 26 26 27
16 12 10 16 22 22 20 20 19 20 25 27 28 26 24 28 29 26 28 29 27 26 24 22 25 27 26 24 22 19 18 18 18 17 15 15 15 14 14 14 15 17 18 17 15 12 9 7 7 8 9 9 11 9 7 8 8 8 9 9 11 14 13 13 17 22 23 22 21 20 19 22 25 24 23 26 28 28 27 27 30 30 26 24 27
20 17 13 10 15 22 21 21 19 19 25 29 28 27 26 29 29 24 27 31 28 27 27 26 27 27 25 23 22 20 19 18 18 17 16 16 14 13 13 12 13 16 16 16 16 14 12 10 9 9 10 10 10 9 9 8 8 7 6 5 4 4 8 12 17 19 20 19 18 18 19 23 26 27 26 26 26 28 28 28 29 28 23 20 22
25 22 19 13 7 14 18 22 21 19 25 29 28 26 26 28 28 26 30 32 29 29 29 29 28 26 25 24 22 21 20 18 18 17 17 17 15 13 12 11 12 14 16 16 17 16 14 13 11 10 10 11 10 9 10 10 9 9 10 10 10 7 5 8 11 12 12 12 12 12 13 17 20 20 20 20 20 22 25 25 26 27 25 23 23
29 27 24 20 12 5 10 23 25 22 25 29 26 24 26 28 28 29 32 32 31 32 32 31 30 27 24 23 22 21 20 18 18 16 15 15 15 14 12 10 11 14 17 18 18 17 15 14 13 11 9 9 9 10 11 10 8 9 9 8 8 9 8 8 8 8 7 7 6 6 5 6 7 6 7 9 10 11 14 18 22 24 25 27 28
31 31 29 26 20 12 4 16 25 25 26 28 26 26 27 29 29 31 34 34 33 34 32 31 30 26 23 22 20 20 19 17 16 16 15 15 15 14 12 13 15 16 18 18 18 17 16 15 14 12 10 9 9 10 11 10 9 8 8 7 6 6 7 7 7 7 6 5 5 4 3 2 2 2 3 5 6 6 7 10 12 15 18 19 21
31 32 32 31 27 21 15 9 15 24 28 28 27 28 29 30 30 31 34 35 34 34 32 30 29 25 22 20 19 18 16 14 14 14 15 16 17 16 16 18 20 19 19 19 18 18 17 15 14 13 11 10 10 10 10 10 10 10 10 9 8 6 6 7 7 7 7 6 6 5 3 1 3 3 4 5 6 7 8 9 11 13 15 16 17
31 31 32 34 32 28 23 17 12 17 28 30 28 28 29 30 32 34 34 34 33 32 31 29 28 26 22 19 19 18 15 13 13 13 14 16 18 19 20 21 22 21 21 20 19 18 16 14 13 12 11 11 11 10 9 9 9 10 11 10 9 8 7 7 7 7 7 6 6 6 6 6 6 7 7 8 8 9 10 11 12 14 15 16 16
30 30 31 32 34 33 29 23 17 14 26 31 28 28 28 27 30 34 36 34 33 31 30 29 28 27 24 21 20 20 18 15 13 14 15 15 17 20 21 22 24 24 23 22 20 19 16 14 13 12 12 11 10 9 8 6 7 8 8 7 6 5 5 5 4 4 5 5 6 7 8 8 9 9 10 11 11 11 12 12 13 14 15 14 14
28 28 29 29 32 34 33 30 23 17 23 30 28 28 28 25 26 32 36 35 34 31 30 30 29 27 26 24 22 21 20 17 15 16 17 17 19 21 22 24 25 25 23 21 19 18 16 14 13 12 12 11 10 8 7 5 5 5 4 4 4 4 5 4 5 5 6 7 7 8 9 9 9 9 9 10 10 11 11 12 12 14 14 12 12
26 26 26 27 30 33 34 33 28 23 23 28 29 29 28 27 27 30 33 34 33 32 31 31 31 29 27 25 23 22 21 19 17 18 18 19 21 22 23 24 25 24 22 20 18 17 15 14 13 12 11 10 9 7 6 5 4 4 4 4 5 6 7 8 9 9 10 10 10 10 10 10 10 9 8 8 9 9 10 11 11 12 13 13 14
24 25 25 26 29 32 34 34 31 29 28 28 29 30 29 28 28 29 30 32 32 31 31 33 33 30 28 27 25 23 22 20 18 18 19 19 20 22 23 24 24 23 21 19 18 16 14 13 12 11 10 9 8 8 7 6 5 5 4 4 5 5 6 6 7 7 7 7 7 7 7 8 8 9 9 9 10 10 11 11 12 13 13 14 15
23 25 27 28 29 30 33 32 30 30 29 30 31 30 29 28 27 26 27 29 32 32 32 33 33 31 29 28 27 25 23 21 19 17 17 17 17 18 19 21 21 20 18 17 15 14 13 12 11 11 10 9 8 8 7 7 6 5 5 5 6 5 5 5 4 4 5 6 6 6 7 8 9 10 11 12 13 14 15 15 14 14 14 15 15
23 25 27 29 30 30 32 32 30 28 28 28 29 27 26 25 26 25 25 26 30 32 32 33 33 31 28 27 26 25 22 20 19 18 16 15 14 14 15 16 14 12 12 13 12 11 11 11 11 11 11 11 10 10 9 9 9 9 9 9 8 7 7 7 7 7 7 7 7 8 10 11 11 13 14 15 16 17 18 18 17 16 15 15 15
25 26 27 28 29 29 29 30 30 29 27 26 26 24 22 21 21 22 22 23 26 30 32 33 32 30 28 26 25 24 22 20 18 17 16 15 14 14 14 13 10 8 9 11 11 10 11 12 13 13 13 13 13 13 14 13 13 13 13 12 11 9 8 7 8 8 8 9 9 10 12 13 14 15 16 17 18 18 18 18 18 17 15 15 14
25 26 26 26 26 27 26 25 25 26 25 24 24 24 22 20 19 17 16 17 19 23 28 30 30 28 26 23 22 21 20 18 16 15 14 13 13 14 14 13 11 10 11 13 13 13 14 14 14 14 14 15 17 17 17 16 15 14 13 12 12 11 10 9 9 10 11 11 11 12 13 13 14 15 16 16 16 16 16 16 16 16 14 13 13
21 23 24 24 23 23 23 23 23 23 23 22 22 22 20 19 20 18 16 16 17 21 25 26 26 26 24 21 20 19 17 16 15 14 13 12 12 13 13 13 12 12 13 15 16 16 16 16 17 18 18 19 18 18 17 16 15 14 13 12 11 11 11 11 10 10 11 11 11 12 11 11 12 13 13 14 14 15 17 18 17 16 14 12 11
17 17 19 21 22 21 21 20 20 20 21 22 22 21 19 18 19 19 18 17 18 21 23 23 23 22 20 19 18 17 16 15 15 14 13 12 12 12 13 13 13 14 14 16 17 17 18 20 21 21 21 19 18 18 18 16 14 13 13 12 12 12 12 12 11 10 10 10 10 10 10 10 10 10 11 13 14 17 19 20 20 18 16 13 11
14 13 13 15 18 21 21 19 18 17 17 18 19 19 19 20 20 21 20 19 18 20 20 20 20 19 18 18 17 16 16 16 16 15 14 13 13 13 14 15 16 17 18 19 20 21 22 23 22 21 20 19 18 17 16 14 13 13 13 13 13 13 13 13 12 12 11 10 9 8 8 8 8 9 11 14 15 17 19 19 20 20 18 15 12
14 14 13 10 11 14 17 18 17 16 16 15 16 17 17 16 17 19 20 19 18 18 18 18 17 16 16 16 16 17 18 18 17 16 15 15 16 16 17 18 20 21 22 23 24 24 23 22 21 20 19 18 18 17 16 15 15 14 14 13 12 12 11 10 10 11 10 8 7 6 6 7 9 10 12 14 15 16 18 18 18 19 18 15 13
14 15 15 12 8 6 9 14 16 16 16 15 15 15 15 13 13 15 16 16 16 15 14 14 13 13 14 14 15 17 19 19 18 18 17 17 18 19 20 21 22 22 22 22 22 21 20 19 19 18 18 18 18 18 17 16 15 15 15 14 13 13 12 11 11 11 9 7 6 6 6 7 8 10 12 12 12 14 16 17 17 18 17 14 13
12 13 14 14 12 6 4 8 12 14 15 15 14 15 14 14 13 14 15 15 15 14 14 13 12 13 15 16 17 18 19 19 19 18 18 19 19 19 20 20 20 20 20 19 19 19 20 21 20 19 19 19 19 18 17 16 16 16 16 16 16 15 15 14 13 11 8 6 6 7 8 9 9 10 10 10 11 12 14 15 16 16 14 13 12
12 13 14 14 14 13 8 6 7 9 11 13 14 14 14 14 14 15 15 15 14 14 15 14 13 14 16 19 20 20 19 18 17 16 16 18 19 19 19 19 19 19 18 17 19 21 22 23 22 21 20 20 19 18 17 16 17 16 16 17 17 17 17 17 16 13 11 9 9 9 9 10 10 10 10 10 10 12 13 13 14 14 12 12 11
13 14 14 12 13 16 15 10 7 6 6 8 10 12 14 14 14 15 15 16 16 15 15 15 15 16 17 19 20 18 16 15 14 13 15 17 19 20 20 19 19 18 16 17 22 24 23 23 23 21 20 20 19 18 17 17 16 16 16 17 18 18 18 18 17 16 16 15 14 13 13 12 12 11 11 10 10 11 13 13 14 14 13 12 10
14 14 14 12 11 12 15 14 11 8 6 5 5 7 10 13 15 15 15 16 17 17 16 16 17 17 18 19 18 16 14 12 11 11 13 16 18 20 20 19 18 16 15 18 23 24 22 22 22 20 20 19 18 18 18 17 17 16 17 18 18 17 17 16 16 17 18 18 18 18 17 15 15 14 13 12 12 13 14 14 15 14 13 12 9
14 13 12 11 10 10 11 12 12 11 11 10 6 5 7 9 13 15 16 16 17 17 17 17 17 17 18 18 16 15 13 11 11 11 14 16 18 18 18 18 17 15 15 18 21 21 21 21 21 20 19 19 19 18 19 19 18 18 17 17 17 16 16 16 17 18 19 19 19 18 17 16 15 15 15 14 14 14 15 15 15 15 14 13 11
13 13 11 9 8 8 9 11 11 11 13 14 13 8 6 10 13 15 16 17 17 17 16 16 15 15 15 15 15 15 14 14 14 15 16 16 16 14 14 16 17 17 18 19 19 19 19 20 19 19 19 19 19 18 19 18 18 17 16 16 16 16 17 17 17 17 17 17 18 17 17 16 16 16 15 14 15 15 16 15 14 14 14 13 11
11 12 11 9 7 6 7 9 10 11 12 14 15 13 9 8 12 14 16 17 16 16 15 13 12 12 12 12 13 14 15 15 16 16 15 13 10 9 13 18 19 19 20 20 19 19 19 18 17 17 17 16 15 16 17 18 17 16 16 16 17 17 17 17 16 16 16 16 17 16 16 17 16 16 15 16 16 16 16 15 14 14 13 12 11
9 10 10 10 9 7 6 7 8 9 11 14 15 14 13 10 10 14 17 16 14 13 12 11 10 10 10 10 11 13 13 13 14 14 13 11 10 11 15 18 19 19 19 18 17 17 17 16 15 14 13 12 12 12 14 16 17 17 16 16 17 17 16 16 16 16 16 16 15 15 15 15 16 16 16 17 17 16 16 15 14 13 13 12 12
7 8 8 10 11 10 6 5 6 7 9 12 14 14 14 13 9 12 16 15 13 11 10 10 10 10 9 9 13 15 13 11 11 12 12 11 12 13 14 15 16 16 17 16 15 16 15 14 12 10 11 11 11 12 13 14 15 16 16 16 16 17 17 17 17 17 17 16 15 15 15 16 16 17 16 16 16 15 14 14 14 13 12 12 12
5 7 8 10 12 11 6 3 4 6 8 9 11 12 13 14 12 13 16 14 11 10 9 10 11 11 11 14 17 16 13 11 12 12 12 12 12 11 11 12 13 13 13 14 14 13 13 11 10 11 11 11 11 12 13 13 13 14 15 15 15 16 17 17 17 17 17 17 17 17 17 17 17 16 16 15 14 14 13 12 12 12 12 12 12
4 7 10 13 13 9 3 5 5 5 5 5 6 7 9 13 15 16 16 14 12 11 11 13 13 12 13 14 14 12 12 14 14 13 13 12 11 10 10 11 12 11 10 10 8 8 9 10 10 12 13 12 10 10 10 9 10 11 12 13 14 14 14 14 15 15 17 17 17 17 16 16 15 15 14 14 13 12 12 11 11 11 11 11 11
4 7 10 13 13 6 2 5 5 4 4 3 3 3 6 10 14 15 15 14 13 13 13 14 14 13 13 12 10 9 11 13 12 11 11 11 11 11 12 11 11 10 9 7 6 7 10 10 9 10 12 12 11 9 8 7 8 9 9 11 12 12 12 12 13 14 15 15 15 15 14 13 13 13 13 12 11 11 11 11 11 12 12 12 12
6 7 8 11 12 5 3 5 3 3 3 3 3 4 6 9 11 12 13 13 14 14 14 16 17 16 14 12 10 10 10 11 11 11 11 10 11 12 12 11 10 10 9 9 10 12 12 10 8 8 9 9 9 8 8 7 7 7 8 8 9 10 10 10 11 11 11 12 12 12 12 12 11 11 11 11 11 11 12 11 12 13 14 13 13
7 6 6 9 12 6 4 7 4 3 3 3 4 6 7 7 8 9 10 13 14 15 17 19 19 17 15 13 12 10 10 10 9 10 10 10 11 12 11 9 9 8 8 8 11 12 11 8 7 7 7 7 6 6 6 6 6 6 7 8 8 8 8 7 7 8 8 8 8 9 9 10 10 9 9 10 10 11 12 11 13 14 14 13 13
8 6 5 7 10 5 4 7 5 3 3 3 5 7 7 7 8 9 11 13 14 15 17 18 17 16 15 13 11 11 10 9 8 8 9 10 11 10 8 6 7 8 8 7 8 9 9 7 6 6 6 5 4 3 4 4 5 5 6 6 6 6 6 5 4 5 5 5 6 6 8 9 9 8 9 9 11 12 12 11 13 14 14 14 14
7 6 6 7 7 3 3 7 5 4 3 4 6 7 7 7 8 10 11 13 13 14 15 14 13 13 13 12 11 12 11 9 8 8 9 9 8 7 6 6 7 9 9 7 6 7 7 6 5 3 3 3 3 4 3 3 3 4 5 5 4 3 3 3 3 3 4 4 5 6 7 7 8 8 9 9 10 11 11 11 12 13 14 15 15
5 5 6 5 4 4 2 6 7 4 3 4 6 7 7 7 7 8 10 11 11 10 11 11 10 10 11 11 11 11 10 9 8 7 7 7 7 6 7 8 9 8 7 6 5 5 5 5 4 2 0 1 3 3 2 2 2 3 4 4 2 2 1 1 1 3 5 5 5 5 6 6 6 7 9 9 9 10 11 12 12 12 12 14 14
8 7 7 5 3 5 5 5 8 7 5 5 6 7 6 6 6 7 8 9 9 9 9 9 10 10 9 9 9 8 7 6 7 8 8 8 7 7 8 9 9 9 8 7 6 5 5 5 3 2 2 3 4 4 4 3 4 4 4 3 2 3 3 3 3 4 5 6 5 4 3 4 5 7 8 8 9 10 11 13 13 13 13 13 13
8 7 7 6 4 4 6 6 8 11 9 7 8 9 8 7 6 6 6 7 8 8 7 7 9 9 7 5 6 6 5 5 6 8 9 8 8 7 7 8 8 8 8 7 7 6 4 2 1 2 3 4 5 4 3 3 3 3 2 2 2 3 4 4 3 3 4 4 3 2 2 4 6 8 8 7 7 9 11 13 13 13 12 12 11
5 6 8 7 2 4 3 6 6 12 12 9 10 11 10 9 7 6 6 7 7 7 6 8 9 8 6 5 5 4 3 3 5 7 8 8 7 7 7 7 7 7 6 6 5 4 3 2 2 2 2 3 3 3 3 3 2 2 2 2 2 2 2 2 2 1 3 2 1 2 3 5 7 7 7 6 6 8 9 11 12 12 10 10 11
7 9 11 9 4 5 3 7 7 10 13 12 11 12 12 11 9 7 7 9 9 8 9 10 9 5 4 6 8 4 2 3 6 6 7 7 6 6 6 6 6 6 5 5 5 3 2 3 3 3 3 3 3 3 3 3 3 2 1 0 1 1 1 2 2 0 2 2 1 2 4 5 6 7 7 6 6 7 8 10 12 12 9 9 11
8 9 9 9 7 8 8 7 6 8 13 14 14 14 13 12 11 9 9 11 10 10 10 11 8 5 5 7 8 5 2 4 7 6 5 5 6 5 5 5 6 5 5 5 3 2 1 2 3 2 2 1 2 2 3 3 4 4 3 2 2 1 1 2 2 1 1 2 3 4 4 4 5 7 7 7 6 7 7 9 11 11 9 8 10
Wind_Direction
245 243 233 218 212 214 219 221 221 222 218 216 218 217 207 196 186 180 178 178 179 177 178 180 180 179 176 172 172 175 177 179 181 182 182 183 187 191 192 195 199 202 203 204 206 208 208 209 210 206 206 206 203 206 207 205 202 199 200 201 201 206 208 200 189 181 193 205 209 208 204 199 199 201 200 200 202 206 207 205 206 209 209 206 203
257 251 240 225 218 218 221 222 223 224 221 218 220 218 211 204 191 181 177 177 177 176 175 177 177 174 172 172 172 174 175 177 180 181 181 184 187 191 194 195 198 201 203 204 205 207 210 211 211 210 211 212 210 211 210 206 202 203 206 202 198 207 215 208 196 181 184 199 207 206 201 199 201 199 201 204 205 206 207 206 209 213 215 214 210
286 265 246 228 222 222 223 223 225 225 223 218 215 213 214 211 197 182 175 175 176 175 175 176 177 175 175 175 174 172 170 170 175 178 180 183 184 188 194 196 198 200 202 204 202 203 207 210 212 212 211 214 216 215 213 210 209 211 213 204 200 212 220 211 201 188 182 191 202 203 199 198 203 203 204 208 210 209 209 209 211 213 217 219 217
322 288 262 243 232 227 223 225 226 224 221 215 206 208 213 211 196 179 170 171 171 171 171 172 174 175 175 173 170 169 170 171 176 181 184 187 185 186 189 191 195 200 199 199 197 199 205 208 212 213 213 216 216 214 214 215 215 215 214 207 204 215 221 211 206 196 184 186 198 204 201 199 203 207 207 208 211 214 215 214 215 216 218 221 222
339 300 267 252 242 232 222 223 225 222 219 209 196 200 201 196 188 174 167 168 168 169 169 169 171 172 171 171 168 169 171 171 176 183 187 186 185 187 190 191 196 201 198 194 194 198 204 209 211 212 215 216 213 212 213 215 218 216 212 205 201 209 217 209 205 202 194 193 197 200 202 202 204 209 210 208 209 214 218 219 221 222 221 221 225
337 288 261 249 244 236 223 219 223 223 221 203 192 193 189 181 178 172 167 166 167 170 172 173 173 171 170 171 170 170 171 172 178 183 181 177 181 187 190 192 197 201 199 196 196 200 207 214 218 216 217 216 210 210 211 211 214 214 213 208 196 203 217 210 203 204 203 201 197 196 199 203 206 210 211 209 210 213 217 221 225 227 226 226 228
300 276 261 251 244 234 224 219 219 219 214 196 189 187 180 175 173 172 170 167 165 168 173 176 177 175 174 172 171 171 172 173 177 180 177 176 180 180 177 181 186 189 192 190 190 197 203 210 218 221 222 221 215 212 212 209 211 214 218 214 199 207 226 222 206 205 204 200 197 196 199 202 207 213 214 213 215 219 220 220 224 227 228 230 233
302 282 270 262 255 236 222 215 210 208 201 189 182 178 175 174 171 170 173 172 168 168 173 178 179 175 171 169 169 170 172 173 176 176 175 178 181 176 171 174 174 171 170 171 176 185 191 200 212 219 223 222 217 215 214 212 213 215 218 216 203 213 232 235 215 207 204 198 196 199 200 200 205 214 216 211 213 222 225 225 228 232 233 234 238
344 312 282 270 264 249 226 213 208 200 190 181 175 175 177 173 168 171 178 176 170 168 171 175 173 168 164 163 164 164 165 169 170 169 168 168 165 160 159 163 162 158 158 163 170 173 172 182 203 210 213 213 210 210 213 216 216 213 216 220 214 216 230 234 217 208 203 197 196 198 199 201 205 210 212 212 215 224 227 225 231 240 241 241 244
9 356 319 283 267 255 234 217 212 197 184 178 172 173 178 171 167 176 182 174 166 165 165 163 161 160 157 156 156 156 158 161 163 164 164 163 158 151 150 151 153 153 156 161 165 162 158 165 182 188 188 191 195 194 193 200 204 203 208 215 219 226 236 230 210 200 197 196 195 195 196 204 210 210 214 220 225 229 229 226 231 239 242 244 249
19 16 5 326 271 254 234 216 210 191 179 178 172 170 175 171 169 174 170 162 160 161 159 155 154 155 154 152 150 149 149 151 155 158 159 160 163 159 151 146 149 157 162 162 162 161 161 162 162 161 161 164 168 158 141 142 150 153 153 145 157 225 236 218 201 195 196 197 199 200 204 213 218 218 221 227 230 230 231 230 233 238 239 242 251
22 21 19 13 311 257 227 205 201 185 172 172 170 173 176 170 165 162 154 153 153 152 151 150 150 151 151 150 147 142 142 143 145 150 153 155 159 159 153 141 138 154 167 167 164 162 158 156 156 154 157 160 159 147 135 131 126 119 114 109 102 105 140 173 177 182 189 192 195 203 215 226 231 231 232 236 239 240 240 238 238 240 240 239 244
25 23 21 24 19 321 206 188 187 180 169 167 166 169 169 162 159 154 148 148 148 144 143 145 144 145 145 145 142 139 140 140 139 142 147 153 160 162 156 142 134 151 167 167 161 158 154 154 155 150 149 155 154 147 142 138 131 120 114 110 104 105 115 123 129 140 149 157 168 176 196 225 236 235 241 251 260 262 255 249 247 247 246 244 247
29 27 24 26 30 31 91 166 172 167 164 164 159 156 156 153 151 148 145 145 143 140 139 140 139 140 142 140 138 136 138 140 141 141 137 141 156 163 154 144 142 151 160 157 152 152 152 151 147 137 131 132 133 137 138 134 131 129 132 135 124 113 113 109 108 113 114 118 133 144 164 218 254 274 278 279 285 289 280 272 271 268 264 264 268
32 32 29 28 32 35 43 88 142 147 149 153 150 145 146 145 143 141 140 140 139 137 137 137 137 137 137 138 136 131 131 138 143 144 137 132 139 144 141 140 142 146 149 148 146 147 147 144 137 131 125 116 111 118 126 128 125 118 117 125 128 121 111 96 84 77 73 72 74 75 74 27 349 337 325 313 306 307 306 301 298 296 294 293 292
32 33 33 33 34 35 39 48 76 119 132 137 137 135 136 138 138 137 135 132 132 132 132 132 132 131 131 134 132 122 119 128 141 147 146 140 135 131 131 134 135 136 136 137 137 137 136 133 128 125 122 113 106 108 114 122 125 115 107 107 105 101 96 81 64 53 46 42 35 26 16 6 357 349 344 338 327 321 315 308 305 309 313 311 304
33 33 35 38 40 39 41 43 42 80 114 121 122 124 126 128 130 133 133 128 126 126 125 124 124 125 124 124 123 116 108 112 128 141 147 148 141 133 131 130 127 125 123 124 126 126 122 120 119 119 116 108 102 104 107 112 115 107 99 95 90 82 77 66 49 29 14 3 355 349 345 343 341 341 340 336 333 331 326 322 321 323 326 320 307
32 33 34 39 47 47 46 43 36 53 93 107 111 115 118 117 118 123 126 124 122 122 120 117 115 115 114 112 113 111 104 101 112 126 137 146 144 137 134 129 124 122 119 117 117 117 113 110 108 108 106 98 93 95 97 95 95 85 66 50 34 13 359 342 324 317 315 315 316 317 321 327 331 337 342 341 343 346 343 340 333 327 325 315 299
33 36 36 41 51 57 55 49 39 43 70 91 101 106 109 110 111 114 117 117 116 115 115 112 107 104 103 103 103 104 101 99 103 111 121 133 140 139 136 130 123 119 117 114 111 109 107 104 99 94 90 85 81 79 78 71 62 50 30 16 11 5 354 337 325 318 312 309 311 313 316 324 327 331 339 346 352 358 360 357 347 337 329 316 303
42 44 47 49 53 60 63 58 48 44 54 71 86 96 102 105 108 109 111 112 112 110 108 105 100 97 97 97 95 94 93 93 96 103 109 118 127 132 133 130 124 118 114 110 105 101 98 93 87 81 77 74 68 62 59 53 47 40 25 19 23 21 11 356 344 339 336 339 344 341 339 344 343 341 343 345 346 350 354 356 355 352 344 330 315
49 50 53 55 57 59 63 63 55 49 53 63 74 84 93 99 102 102 104 108 109 105 102 100 97 94 93 93 90 87 85 84 85 92 101 108 117 123 124 123 123 120 114 106 99 94 89 84 80 76 72 70 69 68 68 67 67 66 59 55 58 59 56 52 48 46 46 47 44 30 15 7 360 355 353 352 349 347 345 344 344 343 342 337 328
49 52 54 56 58 59 61 63 60 55 55 61 67 74 82 90 95 97 99 105 107 104 101 99 97 93 91 90 88 84 81 77 73 74 82 94 106 116 116 114 116 119 114 105 96 87 81 81 82 82 80 82 85 86 85 84 81 75 69 67 67 70 78 85 84 78 75 69 57 39 25 15 7 1 357 354 350 346 342 339 337 333 328 328 329
48 50 53 55 58 59 59 61 62 61 60 60 63 66 71 78 87 95 100 102 104 104 102 100 98 95 91 88 86 82 77 73 70 70 72 81 92 102 107 108 111 118 113 103 97 93 92 94 95 94 94 94 92 89 86 84 82 78 74 73 72 74 80 85 82 79 78 72 57 40 28 20 13 7 2 357 353 348 343 340 337 334 328 324 327
49 48 48 52 56 59 60 59 61 64 65 64 64 63 64 69 79 92 104 106 103 102 102 101 100 96 92 86 83 81 78 74 75 75 75 79 87 93 99 103 106 110 107 103 105 108 105 102 100 100 100 97 93 90 87 84 81 78 76 75 74 74 75 77 79 78 71 61 46 34 28 23 16 12 8 3 357 352 349 347 346 344 339 334 332
51 49 49 50 52 55 59 59 59 62 65 69 72 69 64 63 70 83 98 109 108 102 100 100 99 96 95 91 85 84 85 88 92 91 87 90 94 97 101 105 105 105 104 104 107 109 105 104 104 105 104 102 98 94 89 85 82 79 75 72 69 66 65 71 78 74 63 50 37 29 29 25 19 15 10 3 355 353 353 353 353 350 343 337 331
46 47 51 56 56 55 56 57 58 58 60 66 76 81 78 72 72 78 88 100 107 106 102 101 100 98 98 95 91 90 91 93 96 97 96 98 99 98 99 102 102 101 101 103 106 108 109 111 111 108 105 102 100 95 91 87 83 78 72 67 64 61 59 61 63 59 54 50 42 35 30 22 16 13 10 3 358 357 356 354 354 353 347 335 323
40 40 46 57 65 65 63 62 62 60 58 59 65 71 76 76 75 78 84 94 107 114 113 112 111 107 103 99 95 93 92 90 90 91 94 97 100 100 101 101 103 103 103 104 107 110 112 113 110 107 105 101 97 93 89 84 78 73 68 63 61 59 57 58 59 58 55 52 48 43 32 19 11 7 7 4 360 356 353 351 352 352 349 341 328
36 38 39 46 64 74 75 74 73 72 69 67 63 61 62 64 66 71 81 91 102 113 119 120 116 111 109 107 102 97 94 92 92 94 98 103 106 108 109 107 107 107 106 107 109 111 113 112 108 105 102 96 90 85 80 75 71 67 61 55 51 48 45 45 48 49 47 43 38 35 25 12 3 356 354 355 352 348 344 344 345 345 345 344 339
29 30 33 37 46 68 83 84 85 85 85 83 81 77 74 71 70 73 81 90 98 105 111 114 115 113 111 111 110 106 101 98 97 98 101 104 105 107 108 108 108 108 108 110 113 113 110 104 98 95 90 86 82 77 72 69 65 58 52 45 39 33 30 30 31 32 31 27 22 20 15 6 358 350 348 346 343 341 339 338 339 339 341 343 343
24 23 29 41 50 58 88 96 94 96 98 97 96 94 90 88 88 87 88 94 101 106 106 108 114 117 113 110 110 109 106 102 99 98 99 100 100 101 104 108 110 110 110 113 112 107 101 94 89 86 83 80 76 71 66 61 56 52 47 43 39 39 42 43 42 41 36 28 21 14 8 4 358 354 352 347 340 338 337 337 337 339 343 345 342
30 32 33 45 60 68 75 96 106 105 106 108 109 107 103 99 95 94 94 95 97 101 105 109 111 112 113 114 113 110 106 101 98 99 101 100 98 99 103 107 107 108 112 112 105 98 96 93 89 85 82 78 73 68 63 58 55 52 49 45 44 47 51 51 48 47 45 42 35 25 17 14 10 6 4 356 347 345 346 346 349 350 353 353 346
38 40 38 47 66 74 74 78 91 99 105 116 119 118 116 112 106 100 97 97 96 97 101 105 105 104 106 109 108 102 98 97 100 105 108 105 102 102 103 103 102 104 109 106 99 95 94 92 88 84 80 76 72 69 65 62 60 57 53 51 51 53 54 53 52 51 51 50 47 42 38 35 31 27 23 16 10 8 7 6 7 5 2 360 354
39 37 38 44 56 69 73 72 71 72 76 97 133 140 130 121 116 109 103 99 99 100 100 99 99 99 100 99 94 87 86 94 104 112 114 110 108 106 103 99 98 99 99 97 96 95 92 89 86 81 76 74 75 74 70 67 65 62 58 59 60 61 59 59 58 57 56 54 51 49 46 44 41 39 36 33 31 30 27 22 18 17 16 17 21
36 34 37 39 40 49 56 54 55 63 68 70 88 143 159 145 130 121 114 109 103 102 101 99 98 98 98 92 81 76 81 90 99 112 119 116 113 110 105 99 96 93 91 93 94 92 89 86 82 77 75 77 79 76 70 66 66 66 66 67 67 66 64 63 61 58 57 57 54 51 49 48 45 43 40 39 39 39 38 34 27 25 26 31 40
21 26 31 35 40 47 45 40 45 60 66 65 68 83 136 163 152 132 120 116 111 107 105 103 101 102 100 90 78 78 86 93 99 109 117 117 117 114 105 97 93 92 93 93 92 91 89 85 80 78 80 81 79 74 70 69 67 67 69 69 67 63 60 59 58 57 57 57 56 52 50 48 47 44 42 41 41 40 39 36 33 31 30 30 32
15 20 25 30 41 51 51 49 49 51 60 70 73 72 85 139 156 142 126 119 116 111 107 106 106 108 108 99 90 89 96 100 101 105 108 110 111 105 98 97 96 96 97 98 96 94 91 85 83 85 84 82 80 79 75 71 67 67 67 66 62 59 56 54 54 54 54 54 53 50 47 46 45 44 42 43 43 41 38 37 38 38 35 31 31
13 14 18 21 21 25 41 48 42 41 60 79 82 77 80 101 139 148 137 124 114 107 104 103 108 117 121 118 112 110 108 105 100 98 97 93 87 88 96 100 101 100 100 101 101 97 90 86 88 91 83 79 87 91 81 71 66 65 64 64 62 60 57 54 52 50 49 49 48 45 43 41 40 37 37 38 38 36 34 34 35 35 31 29 29
6 3 4 5 5 11 26 38 40 56 79 86 83 84 89 96 116 146 145 130 110 104 104 102 107 117 127 132 132 129 124 112 99 91 85 79 79 87 96 99 99 99 100 103 103 98 91 91 95 92 82 83 92 90 79 70 65 63 64 65 66 64 59 55 53 50 48 46 45 42 38 35 33 31 30 31 31 29 27 25 23 22 19 17 18
356 354 360 5 7 11 24 53 71 81 89 87 83 88 99 104 114 137 146 137 118 112 111 104 102 111 125 135 139 138 129 114 101 94 89 84 80 81 89 97 101 100 100 103 102 96 94 100 98 85 81 91 96 87 77 72 69 67 65 63 63 61 57 53 51 50 49 46 44 42 39 36 33 30 27 28 27 25 23 22 21 18 15 13 13
327 340 1 15 17 18 65 128 118 100 86 78 76 86 103 115 124 134 140 138 128 122 115 105 102 109 121 131 138 135 120 110 105 100 94 88 79 75 85 98 105 106 105 104 100 99 111 115 98 79 80 91 95 90 82 75 73 72 66 59 56 57 55 50 46 46 46 43 41 40 38 35 32 30 27 27 26 24 22 21 21 21 20 19 18
320 328 354 16 21 22 147 144 119 104 97 89 91 105 117 128 135 138 139 136 129 123 117 111 110 114 118 120 123 119 111 110 109 101 93 87 83 86 97 105 108 107 105 95 91 118 131 121 94 80 87 91 90 90 86 76 72 72 66 58 56 55 53 48 43 41 41 40 38 36 34 31 29 26 24 24 25 24 23 23 25 25 25 23 21
328 332 350 11 15 6 203 183 154 134 126 119 140 143 131 132 138 137 136 136 130 123 121 121 121 122 121 116 111 108 107 110 111 107 99 93 91 98 109 117 117 113 105 91 94 115 126 116 92 87 93 90 84 82 78 70 68 64 56 51 51 50 47 44 39 35 35 36 35 32 28 25 23 21 21 24 25 22 22 24 24 21 18 18 18
326 327 339 360 3 352 205 189 178 159 139 128 147 147 132 128 132 130 131 136 133 125 125 127 126 123 119 112 102 98 102 110 115 112 106 101 101 106 115 124 126 124 116 104 106 116 122 113 94 89 91 88 82 73 61 57 56 49 38 34 35 36 35 32 28 27 31 35 32 23 16 14 12 11 15 19 18 16 16 17 16 13 14 18 21
344 340 337 350 358 358 193 190 182 156 133 128 142 144 132 126 129 126 125 130 129 123 123 128 128 122 115 107 93 84 90 102 109 108 105 104 107 114 119 127 141 143 135 121 117 120 121 116 106 97 93 86 70 41 26 33 40 34 25 21 22 26 30 32 28 27 31 33 24 10 4 7 9 8 9 11 12 12 10 9 12 16 19 21 22
352 354 343 342 359 11 216 214 200 159 140 144 146 143 137 133 132 128 126 128 129 124 120 123 125 120 113 104 90 82 85 94 98 99 102 107 112 118 117 116 134 146 143 131 122 122 123 126 127 116 93 61 39 25 21 30 32 16 7 5 4 6 19 31 34 22 15 14 7 359 357 4 11 12 10 10 10 8 5 7 14 19 20 17 17
310 322 320 322 10 27 308 238 213 182 165 173 168 156 147 143 141 139 137 136 137 135 127 123 124 124 120 114 102 90 88 96 100 97 101 106 108 112 113 110 114 125 130 124 121 127 141 162 177 186 229 18 23 20 13 355 334 333 340 344 327 299 307 317 320 331 335 335 340 348 354 3 14 15 13 15 16 13 12 14 15 15 15 14 15
288 289 293 300 336 358 330 266 221 205 197 196 196 187 167 152 149 151 148 143 142 143 138 127 121 119 119 119 113 99 92 99 101 95 97 103 104 107 112 112 112 116 120 121 123 133 151 172 190 228 295 318 329 329 318 309 308 309 313 315 293 262 252 256 282 312 323 323 325 333 345 3 13 10 4 7 16 18 16 13 9 7 10 13 16
289 286 301 317 305 288 304 292 235 215 211 208 206 200 183 168 166 166 163 159 155 153 151 144 136 132 129 125 117 104 99 108 105 93 92 97 103 110 117 121 121 124 124 122 122 127 135 148 195 294 315 327 337 343 340 335 330 321 307 295 277 257 250 254 271 307 326 329 329 336 348 357 2 0 356 356 2 6 6 6 6 5 7 11 17
305 297 309 327 304 218 278 320 263 224 217 214 210 202 191 184 185 182 180 179 171 164 166 165 156 153 163 171 159 135 119 137 130 106 93 97 108 120 131 135 135 135 133 127 124 127 123 101 63 18 9 16 19 19 15 4 355 348 321 292 268 253 244 231 233 317 345 345 328 335 349 349 348 351 354 352 349 351 356 2 6 4 1 2 7
321 309 302 306 280 221 268 328 301 238 220 215 212 206 198 196 198 198 194 190 181 172 174 174 165 149 154 169 166 155 148 173 163 134 107 107 121 131 140 147 144 141 142 141 137 130 108 74 49 39 43 50 45 43 46 42 39 37 25 325 252 239 222 198 187 319 354 355 317 318 338 346 346 349 352 349 343 344 351 360 5 2 352 350 358
322 319 303 292 272 251 267 304 301 243 223 215 210 205 202 203 205 205 206 205 199 189 184 181 175 157 147 159 165 160 141 165 175 167 136 117 117 121 136 150 147 139 146 155 151 127 74 29 12 15 38 53 52 59 61 54 46 44 40 35 34 16 233 210 208 242 298 319 318 314 314 323 336 343 345 345 345 346 349 356 3 2 354 350 359